| time (UTC) | temp C | wind direction | speed KPH | gust KPH | rain 1hr cm | rain 24hr cm | rain mn cm | humidity % | barometer mb |
| 20260507151532 | 15 | 240 | 3.2 | 9.7 | 0.00 | 0.94 | 0.71 | 66 | 1007.4 |
| 20260507151023 | 15 | 302 | 4.8 | 9.7 | 0.00 | 0.94 | 0.71 | 62 | 1007.4 |
| 20260507150521 | 15 | 351 | 3.2 | 9.7 | 0.00 | 0.94 | 0.71 | 63 | 1007.5 |
| 20260507150038 | 15 | 252 | 3.2 | 9.7 | 0.00 | 0.94 | 0.71 | 64 | 1007.5 |
| 20260507145519 | 15 | 288 | 1.6 | 6.4 | 0.00 | 0.94 | 0.71 | 65 | 1007.6 |
| 20260507145020 | 14 | 293 | 1.6 | 8.0 | 0.00 | 0.94 | 0.71 | 66 | 1007.4 |
| 20260507144539 | 14 | 20 | 3.2 | 14.5 | 0.00 | 0.94 | 0.71 | 67 | 1007.4 |
| 20260507144020 | 13 | 44 | 4.8 | 14.5 | 0.00 | 0.94 | 0.71 | 68 | 1007.5 |
| 20260507143519 | 13 | 23 | 8.0 | 14.5 | 0.00 | 0.94 | 0.71 | 69 | 1007.4 |
| 20260507143036 | 13 | 323 | 1.6 | 11.3 | 0.00 | 0.94 | 0.71 | 70 | 1007.4 |
| 20260507142523 | 13 | 311 | 3.2 | 11.3 | 0.00 | 0.94 | 0.71 | 73 | 1007.5 |
| 20260507142020 | 13 | 296 | 1.6 | 8.0 | 0.00 | 0.94 | 0.71 | 73 | 1007.7 |
| 20260507141538 | 13 | 30 | 1.6 | 9.7 | 0.00 | 0.94 | 0.71 | 74 | 1007.6 |
| 20260507141019 | 13 | 334 | 3.2 | 12.9 | 0.00 | 0.94 | 0.71 | 74 | 1007.6 |
| 20260507140518 | 13 | 310 | 4.8 | 12.9 | 0.00 | 0.94 | 0.71 | 74 | 1007.6 |
| 20260507140037 | 12 | 336 | 1.6 | 8.0 | 0.00 | 0.94 | 0.71 | 76 | 1007.7 |
| 20260507135519 | 12 | 263 | 0.0 | 8.0 | 0.00 | 0.94 | 0.71 | 77 | 1007.6 |
| 20260507135019 | 12 | 344 | 3.2 | 14.5 | 0.00 | 0.94 | 0.71 | 80 | 1007.6 |
| 20260507134535 | 12 | 4 | 3.2 | 14.5 | 0.00 | 0.94 | 0.71 | 82 | 1007.4 |
| 20260507134019 | 11 | 37 | 1.6 | 6.4 | 0.00 | 0.94 | 0.71 | 83 | 1007.6 |
| 20260507133522 | 11 | 351 | 0.0 | 6.4 | 0.00 | 0.94 | 0.71 | 87 | 1007.6 |
| 20260507133045 | 11 | 0 | 1.6 | 6.4 | 0.00 | 0.94 | 0.71 | 88 | 1007.7 |
| 20260507132519 | 11 | 349 | 0.0 | 6.4 | 0.00 | 0.94 | 0.71 | 89 | 1007.7 |
| 20260507132019 | 11 | 227 | 1.6 | 6.4 | 0.00 | 0.94 | 0.71 | 90 | 1007.6 |
| 20260507131546 | 10 | 304 | 0.0 | 6.4 | 0.00 | 0.94 | 0.71 | 92 | 1007.6 |
| 20260507131022 | 10 | 278 | 1.6 | 6.4 | 0.00 | 0.94 | 0.71 | 91 | 1007.9 |
| 20260507130519 | 10 | 324 | 1.6 | 3.2 | 0.00 | 0.94 | 0.71 | 92 | 1008.1 |
| 20260507130041 | 10 | 29 | 0.0 | 3.2 | 0.00 | 0.94 | 0.71 | 93 | 1007.8 |
| 20260507125520 | 10 | 272 | 0.0 | 3.2 | 0.00 | 0.94 | 0.71 | 93 | 1007.8 |
| 20260507125019 | 10 | 293 | 0.0 | 1.6 | 0.00 | 0.94 | 0.71 | 94 | 1007.8 |
| 20260507124539 | 10 | 0 | 0.0 | 1.6 | 0.00 | 0.94 | 0.71 | 94 | 1007.8 |
| 20260507124019 | 10 | 0 | 0.0 | 1.6 | 0.00 | 0.94 | 0.71 | 94 | 1007.8 |
| 20260507123519 | 9 | 0 | 0.0 | 6.4 | 0.00 | 0.94 | 0.71 | 94 | 1007.8 |
| 20260507123035 | 9 | 262 | 1.6 | 6.4 | 0.03 | 0.94 | 0.71 | 94 | 1008.2 |
| 20260507122521 | 9 | 0 | 0.0 | 3.2 | 0.03 | 0.94 | 0.71 | 94 | 1008.2 |
| 20260507122022 | 9 | 0 | 0.0 | 4.8 | 0.03 | 0.94 | 0.71 | 94 | 1008.2 |
| 20260507121540 | 9 | 0 | 0.0 | 4.8 | 0.03 | 0.94 | 0.71 | 94 | 1008.2 |
| 20260507121019 | 8 | 259 | 0.0 | 4.8 | 0.05 | 0.94 | 0.71 | 94 | 1008.0 |
| 20260507120518 | 8 | 0 | 0.0 | 4.8 | 0.08 | 0.94 | 0.71 | 94 | 1007.8 |
| 20260507120039 | 8 | 0 | 0.0 | 1.6 | 0.10 | 0.94 | 0.71 | 94 | 1007.7 |
| 20260507115524 | 8 | 0 | 0.0 | 1.6 | 0.10 | 0.94 | 0.71 | 94 | 1007.6 |
| 20260507115018 | 8 | 0 | 0.0 | 0.0 | 0.10 | 0.94 | 0.71 | 94 | 1007.8 |
| 20260507114537 | 8 | 0 | 0.0 | 0.0 | 0.10 | 0.94 | 0.71 | 94 | 1007.7 |
| 20260507114019 | 8 | 0 | 0.0 | 0.0 | 0.10 | 0.94 | 0.71 | 94 | 1007.8 |
| 20260507113519 | 8 | 0 | 0.0 | 0.0 | 0.08 | 0.91 | 0.69 | 93 | 1007.5 |
| 20260507113039 | 8 | 0 | 0.0 | 0.0 | 0.08 | 0.91 | 0.69 | 93 | 1008.1 |
| 20260507112519 | 8 | 0 | 0.0 | 0.0 | 0.08 | 0.91 | 0.69 | 93 | 1008.0 |
| 20260507112019 | 8 | 0 | 0.0 | 0.0 | 0.08 | 0.91 | 0.69 | 93 | 1007.3 |
| 20260507111537 | 8 | 0 | 0.0 | 0.0 | 0.08 | 0.91 | 0.69 | 93 | 1007.6 |
| 20260507111019 | 8 | 0 | 0.0 | 0.0 | 0.05 | 0.89 | 0.66 | 93 | 1007.8 |
| 20260507110519 | 8 | 0 | 0.0 | 0.0 | 0.05 | 0.86 | 0.64 | 93 | 1007.9 |
| 20260507110048 | 8 | 0 | 0.0 | 0.0 | 0.03 | 0.84 | 0.61 | 93 | 1008.0 |
| 20260507105519 | 8 | 0 | 0.0 | 3.2 | 0.05 | 0.84 | 0.61 | 93 | 1007.4 |
| 20260507105019 | 8 | 0 | 0.0 | 3.2 | 0.05 | 0.84 | 0.61 | 93 | 1007.2 |
| 20260507104543 | 8 | 0 | 0.0 | 1.6 | 0.08 | 0.84 | 0.61 | 93 | 1007.1 |
| 20260507104020 | 8 | 0 | 0.0 | 1.6 | 0.08 | 0.84 | 0.61 | 93 | 1007.1 |
| 20260507103520 | 8 | 0 | 0.0 | 1.6 | 0.08 | 0.84 | 0.61 | 93 | 1007.2 |
| 20260507103104 | 8 | 21 | 0.0 | 1.6 | 0.08 | 0.84 | 0.61 | 93 | 1007.4 |
| 20260507102522 | 8 | 0 | 0.0 | 1.6 | 0.08 | 0.84 | 0.61 | 93 | 1007.5 |
| 20260507102019 | 8 | 28 | 0.0 | 1.6 | 0.08 | 0.84 | 0.61 | 93 | 1007.5 |
| 20260507101540 | 8 | 0 | 0.0 | 3.2 | 0.08 | 0.84 | 0.61 | 93 | 1007.7 |
| 20260507101022 | 8 | 0 | 0.0 | 3.2 | 0.08 | 0.84 | 0.61 | 93 | 1007.9 |
| 20260507100518 | 8 | 0 | 0.0 | 0.0 | 0.05 | 0.81 | 0.58 | 93 | 1007.4 |
| 20260507100048 | 8 | 0 | 0.0 | 0.0 | 0.05 | 0.81 | 0.58 | 93 | 1007.2 |
| 20260507095519 | 8 | 0 | 0.0 | 0.0 | 0.05 | 0.79 | 0.56 | 93 | 1007.2 |
| 20260507095020 | 8 | 0 | 0.0 | 1.6 | 0.03 | 0.76 | 0.53 | 92 | 1007.3 |
| 20260507094538 | 8 | 15 | 0.0 | 1.6 | 0.03 | 0.76 | 0.53 | 92 | 1007.3 |
| 20260507094019 | 8 | 0 | 0.0 | 0.0 | 0.05 | 0.76 | 0.53 | 92 | 1007.0 |
| 20260507093520 | 9 | 0 | 0.0 | 0.0 | 0.05 | 0.76 | 0.53 | 93 | 1007.1 |
| 20260507093037 | 9 | 0 | 0.0 | 1.6 | 0.08 | 0.76 | 0.53 | 92 | 1007.0 |
| 20260507092519 | 9 | 0 | 0.0 | 3.2 | 0.08 | 0.76 | 0.53 | 92 | 1007.0 |
| 20260507092019 | 9 | 0 | 0.0 | 3.2 | 0.08 | 0.76 | 0.53 | 92 | 1007.0 |
| 20260507091543 | 10 | 300 | 0.0 | 3.2 | 0.10 | 0.76 | 0.53 | 93 | 1007.3 |
| 20260507091023 | 10 | 44 | 0.0 | 1.6 | 0.18 | 0.76 | 0.53 | 93 | 1007.4 |
| 20260507090519 | 10 | 0 | 0.0 | 3.2 | 0.25 | 0.76 | 0.53 | 93 | 1007.1 |
| 20260507090038 | 10 | 0 | 0.0 | 4.8 | 0.28 | 0.76 | 0.53 | 93 | 1006.9 |
| 20260507085518 | 10 | 27 | 0.0 | 4.8 | 0.30 | 0.74 | 0.51 | 93 | 1006.5 |
| 20260507085019 | 10 | 0 | 0.0 | 1.6 | 0.30 | 0.74 | 0.51 | 92 | 1006.6 |
| 20260507084544 | 10 | 0 | 0.0 | 1.6 | 0.33 | 0.74 | 0.51 | 92 | 1006.8 |
| 20260507084019 | 10 | 355 | 0.0 | 3.2 | 0.36 | 0.71 | 0.48 | 92 | 1006.8 |
| 20260507083520 | 10 | 0 | 0.0 | 3.2 | 0.43 | 0.71 | 0.48 | 92 | 1006.7 |
| 20260507083038 | 10 | 6 | 0.0 | 11.3 | 0.46 | 0.69 | 0.46 | 92 | 1006.7 |
| 20260507082519 | 10 | 266 | 0.0 | 11.3 | 0.46 | 0.69 | 0.46 | 92 | 1006.8 |
| 20260507082020 | 11 | 0 | 0.0 | 4.8 | 0.46 | 0.69 | 0.46 | 92 | 1006.3 |
| 20260507081538 | 11 | 0 | 0.0 | 4.8 | 0.41 | 0.64 | 0.41 | 92 | 1006.9 |
| 20260507081021 | 11 | 325 | 0.0 | 3.2 | 0.36 | 0.58 | 0.36 | 92 | 1007.1 |
| 20260507080518 | 11 | 270 | 0.0 | 1.6 | 0.28 | 0.51 | 0.28 | 92 | 1006.9 |
| 20260507080044 | 11 | 0 | 0.0 | 1.6 | 0.23 | 0.46 | 0.23 | 92 | 1007.0 |
| 20260507075519 | 11 | 262 | 0.0 | 1.6 | 0.20 | 0.43 | 0.20 | 92 | 1006.9 |
| 20260507075019 | 12 | 0 | 0.0 | 3.2 | 0.18 | 0.41 | 0.18 | 92 | 1006.7 |
| 20260507074540 | 12 | 0 | 0.0 | 3.2 | 0.18 | 0.41 | 0.18 | 92 | 1006.5 |
| 20260507074019 | 12 | 314 | 1.6 | 4.8 | 0.10 | 0.33 | 0.10 | 92 | 1006.4 |
| 20260507073519 | 12 | 316 | 1.6 | 4.8 | 0.05 | 0.28 | 0.05 | 93 | 1005.9 |
| 20260507073042 | 12 | 298 | 0.0 | 3.2 | 0.00 | 0.23 | 0.00 | 93 | 1006.0 |
| 20260507072520 | 12 | 0 | 0.0 | 3.2 | 0.00 | 0.23 | 0.00 | 93 | 1005.5 |
| 20260507072019 | 13 | 307 | 0.0 | 1.6 | 0.00 | 0.23 | 0.00 | 94 | 1005.4 |
| 20260507071538 | 13 | 0 | 0.0 | 0.0 | 0.00 | 0.23 | 0.00 | 94 | 1005.6 |
| 20260507071019 | 13 | 0 | 0.0 | 0.0 | 0.00 | 0.23 | 0.00 | 94 | 1005.6 |
| 20260507070519 | 13 | 0 | 0.0 | 0.0 | 0.00 | 0.23 | 0.00 | 94 | 1005.4 |
| 20260507070058 | 13 | 0 | 0.0 | 0.0 | 0.00 | 0.23 | 0.00 | 94 | 1005.6 |
| 20260507065518 | 13 | 0 | 0.0 | 0.0 | 0.00 | 0.23 | 0.00 | 94 | 1005.6 |
| 20260507065019 | 13 | 0 | 0.0 | 0.0 | 0.00 | 0.23 | 0.00 | 94 | 1005.6 |
| 20260507064546 | 13 | 0 | 0.0 | 0.0 | 0.00 | 0.23 | 0.00 | 94 | 1005.6 |
| 20260507064019 | 13 | 0 | 0.0 | 0.0 | 0.00 | 0.23 | 0.00 | 94 | 1005.5 |
| 20260507063519 | 13 | 0 | 0.0 | 1.6 | 0.00 | 0.23 | 0.00 | 94 | 1005.6 |
| 20260507063037 | 13 | 0 | 0.0 | 1.6 | 0.00 | 0.23 | 0.00 | 94 | 1005.6 |
| 20260507062519 | 13 | 0 | 0.0 | 0.0 | 0.00 | 0.23 | 0.00 | 94 | 1005.7 |
| 20260507062019 | 13 | 0 | 0.0 | 0.0 | 0.00 | 0.23 | 0.00 | 94 | 1005.5 |
| 20260507061534 | 13 | 0 | 0.0 | 1.6 | 0.00 | 0.23 | 0.00 | 94 | 1005.8 |
| 20260507061019 | 13 | 0 | 0.0 | 1.6 | 0.00 | 0.23 | 0.00 | 94 | 1005.9 |
| 20260507060522 | 13 | 150 | 0.0 | 1.6 | 0.00 | 0.23 | 0.00 | 94 | 1006.0 |
| 20260507060035 | 13 | 0 | 0.0 | 1.6 | 0.00 | 0.23 | 0.00 | 94 | 1006.1 |
| 20260507055519 | 13 | 0 | 0.0 | 4.8 | 0.00 | 0.23 | 0.00 | 94 | 1006.0 |
| 20260507055018 | 13 | 0 | 1.6 | 4.8 | 0.00 | 0.23 | 0.00 | 94 | 1006.2 |
| 20260507054559 | 13 | 0 | 0.0 | 9.7 | 0.00 | 0.23 | 0.00 | 94 | 1006.2 |
| 20260507054022 | 13 | 0 | 3.2 | 9.7 | 0.00 | 0.23 | 0.00 | 94 | 1006.3 |
| 20260507053519 | 13 | 212 | 1.6 | 6.4 | 0.00 | 0.23 | 0.00 | 94 | 1006.2 |
| 20260507053038 | 13 | 219 | 0.0 | 4.8 | 0.00 | 0.23 | 0.00 | 94 | 1006.3 |
| 20260507052519 | 13 | 0 | 0.0 | 6.4 | 0.00 | 0.23 | 0.00 | 94 | 1006.4 |
| 20260507052019 | 13 | 224 | 0.0 | 6.4 | 0.00 | 0.23 | 0.00 | 94 | 1006.2 |
| 20260507051541 | 13 | 202 | 1.6 | 6.4 | 0.00 | 0.23 | 0.00 | 94 | 1006.4 |
| 20260507051019 | 13 | 237 | 1.6 | 6.4 | 0.00 | 0.23 | 0.00 | 94 | 1006.4 |
| 20260507050519 | 13 | 225 | 1.6 | 6.4 | 0.00 | 0.23 | 0.00 | 94 | 1006.5 |
| 20260507050043 | 13 | 0 | 1.6 | 6.4 | 0.00 | 0.23 | 0.00 | 94 | 1006.6 |
| 20260507045523 | 13 | 157 | 1.6 | 6.4 | 0.00 | 0.23 | 0.00 | 94 | 1006.6 |
| 20260507045019 | 13 | 0 | 0.0 | 6.4 | 0.00 | 0.23 | 0.00 | 94 | 1006.6 |
| 20260507044539 | 13 | 225 | 1.6 | 6.4 | 0.00 | 0.23 | 0.00 | 94 | 1006.6 |
| 20260507044018 | 13 | 255 | 0.0 | 4.8 | 0.00 | 0.23 | 0.00 | 94 | 1006.7 |
| 20260507043519 | 13 | 0 | 1.6 | 4.8 | 0.00 | 0.23 | 0.00 | 94 | 1006.6 |
| 20260507043039 | 13 | 189 | 1.6 | 4.8 | 0.00 | 0.23 | 0.00 | 94 | 1006.5 |
| 20260507042519 | 13 | 0 | 1.6 | 6.4 | 0.00 | 0.23 | 0.00 | 94 | 1006.4 |
| 20260507042018 | 13 | 221 | 1.6 | 6.4 | 0.00 | 0.23 | 0.00 | 94 | 1006.2 |
| 20260507041542 | 13 | 0 | 0.0 | 4.8 | 0.00 | 0.23 | 0.00 | 94 | 1006.3 |
| 20260507041019 | 13 | 262 | 1.6 | 4.8 | 0.00 | 0.23 | 0.00 | 94 | 1006.4 |
| 20260507040519 | 13 | 220 | 0.0 | 4.8 | 0.00 | 0.23 | 0.00 | 94 | 1006.4 |
| 20260507040042 | 13 | 210 | 1.6 | 9.7 | 0.00 | 0.23 | 0.00 | 94 | 1006.2 |
| 20260507035519 | 13 | 202 | 3.2 | 11.3 | 0.00 | 0.23 | 0.23 | 94 | 1006.2 |
| 20260507035018 | 13 | 142 | 4.8 | 12.9 | 0.00 | 0.23 | 0.23 | 94 | 1006.4 |
| 20260507034538 | 13 | 156 | 1.6 | 12.9 | 0.00 | 0.23 | 0.23 | 94 | 1006.5 |
| 20260507034019 | 13 | 162 | 4.8 | 12.9 | 0.00 | 0.23 | 0.23 | 94 | 1006.7 |
| 20260507033521 | 13 | 219 | 4.8 | 14.5 | 0.00 | 0.23 | 0.23 | 94 | 1006.6 |
| 20260507033037 | 12 | 210 | 3.2 | 14.5 | 0.00 | 0.23 | 0.23 | 94 | 1006.7 |
| 20260507032519 | 12 | 188 | 3.2 | 20.9 | 0.00 | 0.23 | 0.23 | 94 | 1006.5 |
| 20260507032019 | 12 | 181 | 6.4 | 20.9 | 0.00 | 0.23 | 0.23 | 94 | 1006.5 |
| 20260507031537 | 12 | 200 | 4.8 | 12.9 | 0.00 | 0.23 | 0.23 | 94 | 1006.6 |
| 20260507031024 | 12 | 213 | 1.6 | 9.7 | 0.00 | 0.23 | 0.23 | 94 | 1006.6 |
| 20260507030519 | 12 | 224 | 3.2 | 12.9 | 0.00 | 0.23 | 0.23 | 94 | 1006.3 |
| 20260507030039 | 12 | 218 | 3.2 | 16.1 | 0.00 | 0.23 | 0.23 | 94 | 1006.4 |
| 20260507025519 | 12 | 159 | 6.4 | 16.1 | 0.00 | 0.23 | 0.23 | 94 | 1006.3 |
| 20260507025018 | 12 | 153 | 4.8 | 14.5 | 0.00 | 0.23 | 0.23 | 94 | 1006.4 |
| 20260507024537 | 12 | 109 | 4.8 | 14.5 | 0.00 | 0.23 | 0.23 | 93 | 1006.4 |
| 20260507024018 | 12 | 259 | 4.8 | 16.1 | 0.00 | 0.23 | 0.23 | 93 | 1006.5 |
| 20260507023522 | 12 | 219 | 4.8 | 16.1 | 0.00 | 0.23 | 0.23 | 93 | 1006.4 |
| 20260507023037 | 12 | 213 | 4.8 | 12.9 | 0.00 | 0.23 | 0.23 | 93 | 1006.3 |
| 20260507022520 | 12 | 217 | 3.2 | 14.5 | 0.00 | 0.23 | 0.23 | 93 | 1006.4 |
| 20260507022019 | 12 | 250 | 4.8 | 14.5 | 0.00 | 0.23 | 0.23 | 93 | 1006.5 |
| 20260507021538 | 12 | 226 | 3.2 | 12.9 | 0.00 | 0.23 | 0.23 | 93 | 1006.6 |
| 20260507021021 | 12 | 195 | 4.8 | 12.9 | 0.00 | 0.23 | 0.23 | 93 | 1006.5 |
| 20260507020520 | 12 | 208 | 4.8 | 11.3 | 0.00 | 0.23 | 0.23 | 93 | 1006.6 |
| 20260507020036 | 13 | 201 | 4.8 | 11.3 | 0.00 | 0.23 | 0.23 | 93 | 1006.7 |
| 20260507015518 | 13 | 156 | 4.8 | 12.9 | 0.00 | 0.23 | 0.23 | 93 | 1006.7 |
| 20260507015019 | 13 | 82 | 3.2 | 14.5 | 0.00 | 0.23 | 0.23 | 93 | 1006.9 |
| 20260507014547 | 12 | 189 | 6.4 | 16.1 | 0.00 | 0.23 | 0.23 | 93 | 1006.9 |
| 20260507014019 | 12 | 188 | 6.4 | 16.1 | 0.00 | 0.23 | 0.23 | 93 | 1006.7 |
| 20260507013520 | 12 | 226 | 4.8 | 12.9 | 0.00 | 0.23 | 0.23 | 93 | 1006.9 |
| 20260507013045 | 13 | 213 | 3.2 | 16.1 | 0.00 | 0.23 | 0.23 | 93 | 1007.0 |
| 20260507012521 | 13 | 172 | 6.4 | 16.1 | 0.00 | 0.23 | 0.23 | 93 | 1006.9 |
| 20260507012023 | 12 | 120 | 4.8 | 14.5 | 0.00 | 0.23 | 0.23 | 93 | 1007.0 |
| 20260507011543 | 12 | 250 | 4.8 | 14.5 | 0.00 | 0.23 | 0.23 | 93 | 1007.1 |
| 20260507011019 | 13 | 222 | 6.4 | 14.5 | 0.00 | 0.23 | 0.23 | 93 | 1007.2 |
| 20260507010520 | 13 | 205 | 6.4 | 14.5 | 0.00 | 0.23 | 0.23 | 93 | 1007.1 |
| 20260507010043 | 13 | 221 | 6.4 | 16.1 | 0.00 | 0.23 | 0.23 | 93 | 1007.1 |
| 20260507005519 | 12 | 101 | 6.4 | 16.1 | 0.03 | 0.23 | 0.23 | 93 | 1007.2 |
| 20260507005021 | 12 | 46 | 6.4 | 14.5 | 0.03 | 0.23 | 0.23 | 93 | 1007.1 |
| 20260507004537 | 12 | 165 | 3.2 | 17.7 | 0.05 | 0.23 | 0.23 | 93 | 1007.1 |
| 20260507004020 | 12 | 176 | 6.4 | 17.7 | 0.05 | 0.23 | 0.23 | 93 | 1007.1 |
| 20260507003519 | 12 | 225 | 6.4 | 16.1 | 0.05 | 0.23 | 0.23 | 93 | 1007.0 |
| 20260507003032 | 12 | 182 | 3.2 | 16.1 | 0.05 | 0.23 | 0.23 | 93 | 1006.9 |
| 20260507002524 | 12 | 130 | 6.4 | 24.1 | 0.05 | 0.23 | 0.23 | 93 | 1007.0 |
| 20260507002019 | 13 | 217 | 8.0 | 24.1 | 0.05 | 0.23 | 0.23 | 93 | 1007.1 |
| 20260507001553 | 13 | 222 | 6.4 | 20.9 | 0.05 | 0.23 | 0.23 | 93 | 1007.0 |
| 20260507001018 | 13 | 196 | 8.0 | 22.5 | 0.05 | 0.23 | 0.23 | 93 | 1007.0 |
| 20260507000522 | 13 | 219 | 8.0 | 22.5 | 0.05 | 0.23 | 0.23 | 93 | 1007.0 |
| 20260507000037 | 13 | 259 | 8.0 | 22.5 | 0.05 | 0.23 | 0.23 | 93 | 1006.9 |
| 20260506235519 | 13 | 188 | 9.7 | 20.9 | 0.03 | 0.20 | 0.20 | 93 | 1006.9 |
| 20260506235018 | 13 | 250 | 6.4 | 17.7 | 0.03 | 0.20 | 0.20 | 93 | 1006.9 |
| 20260506234549 | 13 | 203 | 8.0 | 19.3 | 0.00 | 0.18 | 0.18 | 92 | 1006.9 |
| 20260506234020 | 13 | 172 | 6.4 | 22.5 | 0.00 | 0.18 | 0.18 | 92 | 1006.9 |
| 20260506233519 | 13 | 230 | 9.7 | 22.5 | 0.00 | 0.18 | 0.18 | 92 | 1007.0 |
| 20260506233108 | 13 | 206 | 8.0 | 24.1 | 0.00 | 0.18 | 0.18 | 92 | 1007.1 |
| 20260506232520 | 13 | 157 | 9.7 | 24.1 | 0.03 | 0.18 | 0.18 | 92 | 1006.9 |
| 20260506232018 | 13 | 203 | 9.7 | 20.9 | 0.03 | 0.18 | 0.18 | 92 | 1007.1 |
| 20260506231537 | 13 | 110 | 9.7 | 20.9 | 0.05 | 0.18 | 0.18 | 92 | 1007.0 |
| 20260506231019 | 13 | 194 | 9.7 | 20.9 | 0.05 | 0.18 | 0.18 | 92 | 1007.1 |
| 20260506230517 | 13 | 253 | 6.4 | 20.9 | 0.08 | 0.18 | 0.18 | 92 | 1007.1 |
| 20260506230036 | 13 | 86 | 8.0 | 20.9 | 0.08 | 0.18 | 0.18 | 92 | 1007.0 |
| 20260506225518 | 13 | 221 | 6.4 | 20.9 | 0.08 | 0.18 | 0.18 | 92 | 1007.0 |
| 20260506225019 | 13 | 202 | 6.4 | 16.1 | 0.08 | 0.18 | 0.18 | 92 | 1006.9 |
| 20260506224534 | 13 | 193 | 9.7 | 19.3 | 0.08 | 0.18 | 0.18 | 92 | 1006.9 |
| 20260506224018 | 13 | 33 | 8.0 | 19.3 | 0.08 | 0.18 | 0.18 | 91 | 1007.0 |
| 20260506223518 | 13 | 185 | 8.0 | 16.1 | 0.08 | 0.18 | 0.18 | 91 | 1007.0 |
| 20260506223038 | 13 | 209 | 8.0 | 22.5 | 0.08 | 0.18 | 0.18 | 91 | 1006.9 |
| 20260506222519 | 13 | 215 | 6.4 | 22.5 | 0.05 | 0.15 | 0.15 | 91 | 1007.2 |
| 20260506222019 | 13 | 184 | 6.4 | 19.3 | 0.05 | 0.15 | 0.15 | 91 | 1007.3 |
| 20260506221550 | 13 | 232 | 4.8 | 19.3 | 0.05 | 0.13 | 0.13 | 91 | 1007.4 |
| 20260506221018 | 13 | 184 | 8.0 | 27.4 | 0.03 | 0.10 | 0.10 | 91 | 1007.4 |
| 20260506220518 | 13 | 133 | 9.7 | 27.4 | 0.03 | 0.10 | 0.10 | 90 | 1007.5 |
| 20260506220043 | 13 | 215 | 9.7 | 22.5 | 0.03 | 0.10 | 0.10 | 90 | 1007.5 |
| 20260506215519 | 13 | 176 | 9.7 | 25.7 | 0.03 | 0.10 | 0.10 | 90 | 1007.5 |
| 20260506215018 | 13 | 184 | 8.0 | 25.7 | 0.03 | 0.10 | 0.10 | 90 | 1007.5 |
| 20260506214537 | 13 | 231 | 9.7 | 22.5 | 0.03 | 0.10 | 0.10 | 90 | 1007.6 |
| 20260506214017 | 13 | 165 | 9.7 | 32.2 | 0.03 | 0.10 | 0.10 | 90 | 1007.5 |
| 20260506213520 | 13 | 160 | 12.9 | 32.2 | 0.03 | 0.10 | 0.10 | 90 | 1007.5 |
| 20260506213041 | 13 | 193 | 12.9 | 25.7 | 0.03 | 0.10 | 0.10 | 90 | 1007.5 |
| 20260506212519 | 13 | 227 | 11.3 | 19.3 | 0.03 | 0.10 | 0.10 | 89 | 1007.7 |
| 20260506212019 | 13 | 224 | 9.7 | 25.7 | 0.00 | 0.08 | 0.08 | 89 | 1007.7 |
| 20260506211545 | 13 | 167 | 12.9 | 25.7 | 0.00 | 0.08 | 0.08 | 89 | 1007.7 |
| 20260506211019 | 13 | 163 | 9.7 | 29.0 | 0.00 | 0.08 | 0.08 | 89 | 1007.8 |
| 20260506210519 | 13 | 127 | 8.0 | 29.0 | 0.00 | 0.08 | 0.08 | 89 | 1007.8 |
| 20260506210045 | 13 | 174 | 8.0 | 22.5 | 0.03 | 0.08 | 0.08 | 89 | 1007.9 |
| 20260506205518 | 13 | 109 | 8.0 | 22.5 | 0.03 | 0.08 | 0.08 | 88 | 1007.8 |
| 20260506205018 | 13 | 239 | 11.3 | 29.0 | 0.05 | 0.08 | 0.08 | 88 | 1007.8 |
| 20260506204538 | 13 | 188 | 11.3 | 30.6 | 0.05 | 0.08 | 0.08 | 88 | 1008.0 |
| 20260506204019 | 13 | 220 | 8.0 | 30.6 | 0.08 | 0.08 | 0.08 | 88 | 1007.9 |
| 20260506203519 | 13 | 231 | 9.7 | 27.4 | 0.08 | 0.08 | 0.08 | 88 | 1007.9 |
| 20260506203038 | 14 | 170 | 11.3 | 25.7 | 0.08 | 0.08 | 0.08 | 88 | 1007.9 |
| 20260506202602 | 14 | 219 | 6.4 | 27.4 | 0.08 | 0.08 | 0.08 | 89 | 1007.9 |
| 20260506202018 | 14 | 181 | 8.0 | 27.4 | 0.08 | 0.08 | 0.08 | 88 | 1008.1 |
| 20260506201540 | 14 | 219 | 8.0 | 19.3 | 0.08 | 0.08 | 0.08 | 88 | 1008.2 |
| 20260506201020 | 14 | 179 | 8.0 | 19.3 | 0.08 | 0.08 | 0.08 | 88 | 1008.0 |
| 20260506200521 | 15 | 162 | 8.0 | 14.5 | 0.08 | 0.08 | 0.08 | 87 | 1008.2 |
| 20260506200037 | 15 | 183 | 6.4 | 16.1 | 0.05 | 0.05 | 0.05 | 86 | 1008.1 |
| 20260506195521 | 15 | 193 | 4.8 | 20.9 | 0.03 | 0.03 | 0.03 | 85 | 1008.2 |
| 20260506195018 | 15 | 181 | 9.7 | 22.5 | 0.03 | 0.03 | 0.03 | 85 | 1008.3 |
| 20260506194537 | 15 | 162 | 9.7 | 22.5 | 0.03 | 0.03 | 0.03 | 83 | 1008.4 |
| 20260506194019 | 15 | 135 | 8.0 | 19.3 | 0.00 | 0.00 | 0.00 | 83 | 1008.5 |
| 20260506193520 | 16 | 252 | 6.4 | 20.9 | 0.00 | 0.00 | 0.00 | 82 | 1008.4 |
| 20260506193044 | 16 | 165 | 6.4 | 22.5 | 0.00 | 0.00 | 0.00 | 81 | 1008.4 |
| 20260506192522 | 16 | 218 | 8.0 | 24.1 | 0.00 | 0.00 | 0.00 | 80 | 1008.2 |
| 20260506192019 | 16 | 217 | 9.7 | 24.1 | 0.00 | 0.00 | 0.00 | 79 | 1008.4 |
| 20260506191534 | 16 | 217 | 6.4 | 33.8 | 0.00 | 0.00 | 0.00 | 79 | 1008.5 |
| 20260506191019 | 16 | 272 | 11.3 | 33.8 | 0.00 | 0.00 | 0.00 | 78 | 1008.5 |
| 20260506190522 | 16 | 289 | 8.0 | 27.4 | 0.00 | 0.00 | 0.00 | 78 | 1008.5 |
| 20260506190037 | 16 | 200 | 11.3 | 27.4 | 0.00 | 0.00 | 0.00 | 78 | 1008.5 |
| 20260506185518 | 16 | 157 | 11.3 | 24.1 | 0.00 | 0.00 | 0.00 | 78 | 1008.4 |
| 20260506185020 | 16 | 220 | 9.7 | 27.4 | 0.00 | 0.00 | 0.00 | 78 | 1008.1 |
| 20260506184539 | 16 | 158 | 11.3 | 27.4 | 0.00 | 0.00 | 0.00 | 78 | 1008.3 |
| 20260506184021 | 16 | 225 | 9.7 | 25.7 | 0.00 | 0.00 | 0.00 | 77 | 1008.6 |
| 20260506183521 | 16 | 182 | 11.3 | 30.6 | 0.00 | 0.00 | 0.00 | 77 | 1008.6 |
| 20260506183033 | 17 | 142 | 14.5 | 35.4 | 0.00 | 0.00 | 0.00 | 77 | 1008.6 |
| 20260506182518 | 17 | 187 | 11.3 | 35.4 | 0.00 | 0.00 | 0.00 | 77 | 1008.6 |
| 20260506182022 | 17 | 212 | 12.9 | 29.0 | 0.00 | 0.00 | 0.00 | 76 | 1008.5 |
| 20260506181553 | 17 | 160 | 8.0 | 24.1 | 0.00 | 0.00 | 0.00 | 76 | 1008.7 |
| 20260506181019 | 17 | 179 | 9.7 | 29.0 | 0.00 | 0.00 | 0.00 | 76 | 1008.8 |
| 20260506180519 | 17 | 193 | 9.7 | 29.0 | 0.00 | 0.00 | 0.00 | 75 | 1008.9 |
| 20260506180039 | 17 | 214 | 12.9 | 25.7 | 0.00 | 0.00 | 0.00 | 75 | 1009.1 |
| 20260506175521 | 17 | 303 | 11.3 | 29.0 | 0.00 | 0.00 | 0.00 | 75 | 1009.1 |
| 20260506175020 | 18 | 181 | 11.3 | 33.8 | 0.00 | 0.00 | 0.00 | 75 | 1009.1 |
| 20260506174538 | 18 | 207 | 12.9 | 33.8 | 0.00 | 0.00 | 0.00 | 75 | 1009.2 |
| 20260506174021 | 18 | 231 | 11.3 | 25.7 | 0.00 | 0.00 | 0.00 | 74 | 1009.3 |
| 20260506173522 | 18 | 195 | 12.9 | 27.4 | 0.00 | 0.00 | 0.00 | 74 | 1009.4 |
| 20260506173103 | 18 | 212 | 11.3 | 30.6 | 0.00 | 0.00 | 0.00 | 74 | 1009.4 |
| 20260506172518 | 18 | 141 | 14.5 | 40.2 | 0.00 | 0.00 | 0.00 | 74 | 1009.2 |
| 20260506172053 | 18 | 156 | 12.9 | 40.2 | 0.00 | 0.00 | 0.00 | 74 | 1009.3 |
| 20260506171542 | 18 | 311 | 9.7 | 33.8 | 0.00 | 0.00 | 0.00 | 74 | 1009.4 |
| 20260506171020 | 18 | 253 | 11.3 | 29.0 | 0.00 | 0.00 | 0.00 | 73 | 1009.2 |
| 20260506170518 | 18 | 105 | 12.9 | 29.0 | 0.00 | 0.00 | 0.00 | 73 | 1009.2 |
| 20260506170051 | 18 | 207 | 11.3 | 32.2 | 0.00 | 0.00 | 0.00 | 74 | 1009.4 |
| 20260506165519 | 18 | 174 | 14.5 | 32.2 | 0.00 | 0.00 | 0.00 | 74 | 1009.4 |
| 20260506165021 | 18 | 153 | 9.7 | 29.0 | 0.00 | 0.00 | 0.00 | 74 | 1009.6 |
| 20260506164535 | 18 | 220 | 11.3 | 29.0 | 0.00 | 0.00 | 0.00 | 73 | 1009.7 |
| 20260506164018 | 18 | 204 | 11.3 | 32.2 | 0.00 | 0.00 | 0.00 | 73 | 1009.6 |
| 20260506163519 | 18 | 142 | 12.9 | 32.2 | 0.00 | 0.00 | 0.00 | 74 | 1009.7 |
| 20260506163050 | 18 | 185 | 8.0 | 32.2 | 0.00 | 0.00 | 0.00 | 74 | 1009.7 |
| 20260506162518 | 18 | 181 | 16.1 | 40.2 | 0.00 | 0.00 | 0.00 | 74 | 1009.8 |
| 20260506162022 | 18 | 231 | 11.3 | 40.2 | 0.00 | 0.00 | 0.00 | 74 | 1009.9 |
| 20260506161540 | 18 | 184 | 14.5 | 30.6 | 0.00 | 0.00 | 0.00 | 74 | 1009.9 |
| 20260506161020 | 18 | 152 | 8.0 | 29.0 | 0.00 | 0.00 | 0.00 | 74 | 1010.0 |
| 20260506160522 | 18 | 192 | 12.9 | 27.4 | 0.00 | 0.00 | 0.00 | 73 | 1010.1 |
| 20260506160042 | 18 | 188 | 11.3 | 27.4 | 0.00 | 0.00 | 0.00 | 73 | 1010.2 |
| 20260506155518 | 18 | 195 | 9.7 | 27.4 | 0.00 | 0.00 | 0.00 | 73 | 1010.3 |
| 20260506155018 | 18 | 222 | 11.3 | 29.0 | 0.00 | 0.00 | 0.00 | 73 | 1010.3 |
| 20260506154547 | 18 | 114 | 12.9 | 29.0 | 0.00 | 0.00 | 0.00 | 73 | 1010.4 |
| 20260506154018 | 18 | 212 | 11.3 | 32.2 | 0.00 | 0.00 | 0.00 | 73 | 1010.4 |
| 20260506153518 | 18 | 226 | 14.5 | 32.2 | 0.00 | 0.00 | 0.00 | 73 | 1010.6 |
| 20260506153038 | 18 | 204 | 14.5 | 25.7 | 0.00 | 0.00 | 0.00 | 73 | 1010.6 |
| 20260506152518 | 18 | 224 | 12.9 | 25.7 | 0.00 | 0.00 | 0.00 | 74 | 1010.8 |
| 20260506152019 | 18 | 145 | 6.4 | 30.6 | 0.00 | 0.00 | 0.00 | 75 | 1010.7 |